Location: Baller�as
(41.9020°N, 0.1554°W)
Time: 23:03:31
(UTC+00:00)

Cosmos 2218 Rocket - Pass Details

Date: 10 August 2020
Orbit: 956 x 1005 km, 82.9° (Epoch: 22 September)

Event Time Altitude Azimuth Distance (km) Brightness Sun altitude
Rises 19:37:25 0° 190° (S) 3,643 6.8 -5.9°
Reaches altitude 10° 19:39:55 10° 192° (SSW) 2,695 6.2 -6.4°
Maximum altitude 19:46:04 76° 278° (W) 989 4.2 -7.4°
Drops below altitude 10° 19:52:15 10° 5° (N) 2,696 6.7 -8.4°
Sets 19:54:45 0° 7° (N) 3,646 7.3 -8.8°
